Вернуться в каталог

STARLINK-37164

АктивенСвязьVLEO
NORAD 68324·PAYLOAD·🇺🇸 United States

Запущен Mar 22, 2026 с Cape Canaveral Space Force Station

Loading…

Ближайшие Пролёты (ближайшие 24 часа)

TLE

СвежийSource: CelesTrak SupGP

Эпоха: Sep 15, 2026, 03:17 UTC

1 68324C 26059D   26258.13729167 -.00072832  00000+0 -21524-2 0  2581
2 68324  53.1585 186.5712 0001642  82.4977 338.8632 15.34417588    12

Отслеживайте STARLINK-37164 в реальном времени с AllMySat

Download on the App Store